Miscellaneous Local Product
Issued by NWS North Platte, NE

Home | Current Version | Previous Version | Graphics & Text | Print | Product List | Glossary On
Versions: 1 2 3 4 5 6 7 8 9 10 11 12 13 14 15 16 17 18 19 20 21 22 23 24 25 26 27 28 29 30 31 32 33 34 35 36 37 38 39 40 41 42 43 44 45 46 47 48 49 50
860
AXUS43 KLBF 200410
MISLBF


WESTERN AND NORTH CENTRAL NEBRASKA HOURLY WEATHER ROUNDUP
NATIONAL WEATHER SERVICE NORTH PLATTE NE
1000 PM CST SUN FEB 19 2017

NOTE: "FAIR" INDICATES FEW OR NO CLOUDS BELOW 12,000 FEET WITH NO
SIGNIFICANT WEATHER AND/OR OBSTRUCTIONS TO VISIBILITY.

NOTE: STATIONS NOT REPORTING VARIABLES SUCH AS SKY/WEATHER OR
PRESSURE ARE PROVIDED BY RAWS AND APRS NETWORKS AND ARE NOT UNDER
NATIONAL WEATHER SERVICE QUALITY CONTROL.

...OBSERVATIONS IN AND NEAR THE EASTERN PANHANDLE OF NEBRASKA...

CITY           SKY/WX    TMP DP  RH WIND       PRES   REMARKS
PINE RIDGE     CLOUDY    46  36  68 S6        29.59R
CHADRON        CLOUDY    49  36  61 W5        29.59R
ALLIANCE       CLOUDY    51  36  56 SW18G25   29.60R
SIDNEY         CLOUDY    52  27  38 S12       29.62R
CRESCENT LAKE    N/A     53  35  50 S10         N/A
$$

...OBSERVATIONS IN NORTHERN NEBRASKA AND FAR SOUTHERN SOUTH DAKOTA...

CITY           SKY/WX    TMP DP  RH WIND       PRES   REMARKS
WINNER         CLOUDY    61  45  55 S13       29.59S
VALENTINE      PTCLDY    60  44  55 S17G28    29.59F
THEDFORD       CLOUDY    59  47  66 SE22G29   29.60F
AINSWORTH      CLOUDY    58  47  67 S17G23    29.62S
O`NEILL        CLOUDY    56  49  78 S13G23    29.69S
ORD            CLOUDY    55  48  77 S17G24    29.71R
BROKEN BOW     CLOUDY    56  49  77 S22G31    29.69R
VALENTINE NWR    N/A     57  46  66 SE15G23     N/A
HALSEY           N/A     58  47  66 SE10G22     N/A
CHAMBERS         N/A     54  49  83 S3          N/A
EWING            N/A     55  50  84 S9G16       N/A
$$

...OBSERVATIONS IN SOUTHWEST NEBRASKA AND FAR NORTHEAST COLORADO...

CITY           SKY/WX    TMP DP  RH WIND       PRES   REMARKS
HOLYOKE        FAIR      59  30  33 S16G24    29.63R
IMPERIAL       PTCLDY    58  30  34 S14       29.63R
OGALLALA       PTCLDY    56  34  42 SW3       29.63R
NORTH PLATTE   CLOUDY    60  48  64 SE16G29   29.61F
MCCOOK         MOCLDY    58  51  78 S17       29.66F
LEXINGTON      PTCLDY    56  51  81 S22G28    29.70F
STAPLETON        N/A     55  49  79 S3G12       N/A
GOTHENBURG       N/A     56  49  76 S14         N/A
CALLAWAY         N/A     55  50  83 S23         N/A
$$

...OBSERVATIONS IN CENTRAL LINCOLN COUNTY AREA...

CITY           SKY/WX    TMP DP  RH WIND       PRES   REMARKS
N.P. AIRPORT   CLOUDY    60  48  64 SE16G29   29.61F
N.P. DOWNTOWN    N/A     60  50  69 SE12G25     N/A
N.P. SOUTHEAST   N/A     59  49  68 SE15G30     N/A
N.P. HILLCREST   N/A     59  49  69 SE23G36     N/A
$$

...SOME OBSERVATIONS FROM AROUND THE REGION...

CITY           SKY/WX    TMP DP  RH WIND       PRES   REMARKS
LARAMIE        CLOUDY    34  31  88 W12       29.75R WCI  25
CHEYENNE       CLOUDY    43  34  70 NW8       29.70R
DENVER         CLOUDY    47  35  63 NW16      29.67R
AKRON          CLOUDY    52  29  41 S18G25    29.61S
SCOTTSBLUFF    CLOUDY    50  35  56 NW10      29.63R
RAPID CITY     CLOUDY    58  33  39 SW12      29.56S
BISMARCK       CLOUDY    38  35  89 NE7       29.52S WCI  33
PIERRE         CLOUDY    56  39  53 S7        29.55R
SIOUX FALLS    CLOUDY    57  50  77 S14       29.72R
OMAHA          PTCLDY    59  52  77 S15       29.84R
GRAND ISLAND   CLOUDY    54  52  93 S16G24    29.76S
KANSAS CITY    MOCLDY    59  52  77 S9        29.91R
WICHITA        TSTM      61  59  93 S8        29.82F FOG
OKLAHOMA CITY  TSTM      64  62  93 SE20G29   29.81S
DALLAS         MOCLDY    71  67  87 SE18      29.83R
AMARILLO       PTCLDY    47  39  74 S8        29.84R
DODGE CITY     MOCLDY    54  45  71 SE9       29.76F
HAYS           PTCLDY    57  54  89 S18       29.77S
GOODLAND       MOCLDY    55  31  39 S20       29.67R
$$




USA.gov is the U.S. government's official web portal to all federal, state and local government web resources and services.